This demonstration page uses our WeatherBlox Daily Observations layout. Learn more.

38.88101, -77.10428

Hourly Observations for January 25, 2021

Temp ( °F °C ) Dew Point ( °F °C ) Humidity (%) Winds ( mph kmh ) Pressure ( in mb ) Visibility ( mi km ) Precip ( " mm )
12:52 am 00:52 Cloudy 36 2.2 19 -7.2 50 50 ESE 3 6 30.14 1021 10 16.0934 0 0
1:52 am 01:52 Cloudy 36 2.2 19 -7.2 50 50 SE 3 6 30.14 1021 10 16.0934 0 0
2:52 am 02:52 Cloudy 36 2.2 20 -6.7 52 52 SE 3 6 30.14 1021 10 16.0934 0 0
3:52 am 03:52 Cloudy 36 2.2 22 -5.6 57 57 E 3 6 30.12 1020 10 16.0934 0 0
4:52 am 04:52 Cloudy 36 2.2 23 -5 59 59 E 6 9 30.12 1020 10 16.0934 0 0
5:52 am 05:52 Cloudy 36 2.2 23 -5 59 59 E 5 7 30.12 1020 10 16.0934 0 0
6:52 am 06:52 Cloudy 36 2.2 23 -5 59 59 ENE 5 7 30.14 1021 10 16.0934 0 0
7:52 am 07:52 Cloudy 36 2.2 24 -4.4 62 62 NE 7 11 30.15 1021 10 16.0934 0 0
8:52 am 08:52 Cloudy 37 2.8 24 -4.4 59 59 ENE 7 11 30.14 1021 10 16.0934 0 0
9:52 am 09:52 Cloudy 37 2.8 24 -4.4 59 59 NE 9 15 30.12 1020 10 16.0934 0 0
10:52 am 10:52 Cloudy 38 3.3 23 -5 55 55 NE 7 11 30.17 1022 10 16.0934 0 0
11:52 am 11:52 Cloudy 38 3.3 22 -5.6 52 52 NE 7 11 30.14 1021 10 16.0934 0 0
12:52 pm 12:52 Cloudy 39 3.9 22 -5.6 50 50 ENE 7 11 30.11 1020 10 16.0934 0 0
1:52 pm 13:52 Cloudy 39 3.9 23 -5 53 53 E 5 7 30.09 1019 10 16.0934 0 0
2:52 pm 14:52 Cloudy 39 3.9 22 -5.6 50 50 ENE 6 9 30.08 1019 10 16.0934 0 0
3:52 pm 15:52 Cloudy 38 3.3 23 -5 55 55 NE 9 15 30.06 1018 10 16.0934 0 0
4:52 pm 16:52 Cloudy 38 3.3 23 -5 55 55 NE 10 17 30.04 1017 10 16.0934 0 0
5:52 pm 17:52 Cloudy with Light Rain 36 2.2 25 -3.9 64 64 E 6 9 30.06 1018 8 12.87472 0.01 0.254
6:52 pm 18:52 Cloudy with Light Wintry Mix 34 1.1 27 -2.8 76 76 E 5 7 30.09 1019 6 9.65604 0.05 1.27
7:00 pm 19:00 Cloudy with Light Rain/Snow 34 1.1 28 -2.2 79 79 E 5 7 30.1 1019 5 8.0467 0.01 0.254
7:04 pm 19:04 Cloudy with Light Rain/Snow 34 1.1 28 -2.2 79 79 E 5 7 30.1 1019 5 8.0467 0.01 0.254
7:52 pm 19:52 Cloudy with Light Snow 32 0 29 -1.7 88 88 ENE 8 13 30.09 1019 3 4.82802 0.05 1.27
7:58 pm 19:58 Cloudy with Light Snow 32 0 29 -1.7 88 88 ENE 8 13 30.09 1019 2.5 4.02335 0.01 0.254
8:02 pm 20:02 Cloudy with Light Snow 32 0 29 -1.7 88 88 ENE 8 13 30.09 1019 3 4.82802 0.01 0.254
8:17 pm 20:17 Cloudy with Mist and Fog 32 0 29 -1.7 88 88 ENE 7 11 30.08 1019 6 9.65604 0.02 0.508
8:39 pm 20:39 Cloudy 32 0 29 -1.7 88 88 E 9 15 30.04 1017 7 11.26538 0.02 0.508
8:43 pm 20:43 Cloudy with Light Wintry Mix 32 0 29 -1.7 88 88 ENE 7 11 30.04 1017 7 11.26538 0.02 0.508
8:52 pm 20:52 Cloudy with Light Wintry Mix 32 0 29 -1.7 88 88 E 8 13 30.03 1017 7 11.26538 0.02 0.508
9:05 pm 21:05 Cloudy 32 0 29 -1.7 88 88 NNE 7 11 30.08 1019 9 14.48406 0.001 0.001
9:27 pm 21:27 Cloudy with Light Wintry Mix 32 0 29 -1.7 88 88 NNE 8 13 30.09 1019 6 9.65604 0.001 0.001
9:35 pm 21:35 Cloudy with Light Wintry Mix 32 0 29 -1.7 88 88 NE 9 15 30.08 1019 2.5 4.02335 0.01 0.254
9:49 pm 21:49 Cloudy with Light Wintry Mix 32 0 30 -1 93 93 NE 9 15 30.08 1019 2.5 4.02335 0.03 0.762
9:52 pm 21:52 Cloudy with Light Wintry Mix 32 0 30 -1.1 92 92 NE 8 13 30.08 1019 2.5 4.02335 0.03 0.762
11:52 pm 23:52 Cloudy with Light Freezing Drizzle 32 0 30 -1.1 92 92 NE 10 17 30.05 1018 6 9.65604 0.001 0.001

Powered by AerisWeather